IRIDIUM 96 [+]

Last updated on Fri Dec 22 2017 00:19:14 GMT+0000 (Coordinated Universal Time)

1 27376U 02005E 17355.66532065 .00000622 00000-0 66606-4 0 9994 2 27376 86.3980 240.7727 0166608 155.1177 205.8196 14.76758980842992
UTC large
Height (km)
Speed (km/s)
/
Latitude / Longitude
Inclination (degrees)
Orbital Period (minutes)
Azimuth
Elevation
Range (km)
Doppler Factor

Next 0 passes for location: London (51.5072 / 0.1276)

Sorry there are no passes over London.